This demonstration page uses our WeatherBlox Daily Observations layout. Learn more.

Left ArrowRight Arrow

39.51506, -84.39828

Hourly Observations for June 12, 2015

Temp ( °F °C ) Dew Point ( °F °C ) Humidity (%) Winds ( mph kmh ) Pressure ( in mb ) Visibility ( mi km ) Precip ( " mm )
12:15 am 00:15 Partly Cloudy 74 23.6 69 20.5 83 83 N N/A 29.88 1012 10 16.0934 N/A
12:35 am 00:35 Clear 74 23.6 69 20.6 83 83 N N/A 29.88 1012 10 16.0934 N/A
12:55 am 00:55 Clear 74 23.6 68 20.2 81 81 WSW 3 6 29.88 1012 10 16.0934 N/A
1:15 am 01:15 Clear 74 23.6 69 20.3 82 82 N N/A 29.88 1012 10 16.0934 N/A
1:35 am 01:35 Clear 72 22.3 67 19.6 85 85 N N/A 29.88 1012 10 16.0934 N/A
1:55 am 01:55 Clear 71 21.6 66 19.1 86 86 N N/A 29.88 1012 10 16.0934 N/A
2:15 am 02:15 Clear 70 20.9 65 18.6 87 87 N N/A 29.88 1012 10 16.0934 N/A
2:35 am 02:35 Clear 69 20.8 65 18.5 87 87 N N/A 29.88 1012 10 16.0934 N/A
2:55 am 02:55 Clear 69 20.8 65 18.5 87 87 N N/A 29.88 1012 10 16.0934 N/A
3:15 am 03:15 Clear 69 20.8 65 18.5 87 87 N N/A 29.88 1012 10 16.0934 N/A
3:35 am 03:35 Clear 69 20.8 66 18.7 88 88 N N/A 29.88 1012 10 16.0934 N/A
3:55 am 03:55 Clear 69 20.8 65 18.6 87 87 N N/A 29.88 1012 7 11.26538 N/A
4:15 am 04:15 Clear 69 20.8 66 18.7 88 88 N N/A 29.88 1012 7 11.26538 N/A
4:35 am 04:35 Clear 69 20.8 66 18.9 89 89 N N/A 29.88 1012 7 11.26538 N/A
4:55 am 04:55 Clear 69 20.8 66 19 90 90 N N/A 29.88 1012 7 11.26538 N/A
5:15 am 05:15 Clear 69 20.8 66 19 90 90 N N/A 29.88 1012 7 11.26538 N/A
5:35 am 05:35 Clear 69 20.8 66 19 90 90 N N/A 29.88 1012 7 11.26538 N/A
5:55 am 05:55 Clear with Mist and Fog 69 20.8 66 19 90 90 N N/A 29.88 1012 5 8.0467 N/A
6:15 am 06:15 Sunny with Mist and Fog 69 20.8 66 19 90 90 N N/A 29.88 1012 5 8.0467 N/A
6:35 am 06:35 Sunny with Mist and Fog 69 20.8 66 19 90 90 N N/A 29.88 1012 3 4.82802 N/A
6:55 am 06:55 Sunny 69 20.8 66 19 90 90 N N/A 29.88 1012 7 11.26538 N/A
7:15 am 07:15 undefined N/A N/A N/A undefined N/A N/A N/A N/A
7:35 am 07:35 undefined 74 23.6 71 21.6 89 89 SSW 6 9 29.91 1013 N/A N/A
7:55 am 07:55 Sunny 77 25.1 69 20.4 75 75 SSW 8 13 29.91 1013 10 16.0934 N/A
8:15 am 08:15 Sunny 78 25.3 68 20.1 73 73 SSW 9 15 29.91 1013 10 16.0934 N/A
8:35 am 08:35 Sunny 80 26.5 69 20.5 70 70 SW 12 19 29.91 1013 10 16.0934 N/A
8:55 am 08:55 Sunny 80 26.5 68 20 68 68 SW 12 19 29.91 1013 10 16.0934 N/A
9:15 am 09:15 Sunny 81 27.2 68 20.2 66 66 SW 13 20 29.91 1013 10 16.0934 N/A
9:35 am 09:35 Sunny 82 28 69 20.5 64 64 SW 12 19 29.88 1012 10 16.0934 N/A
9:55 am 09:55 Sunny 82 28 68 20.1 62 62 SW 13 20 29.88 1012 10 16.0934 N/A
10:15 am 10:15 Sunny 83 28.6 69 20.4 61 61 SW 12 19 29.88 1012 10 16.0934 N/A
10:35 am 10:35 Sunny 84 29.1 69 20.5 60 60 SW 14 22 29.88 1012 10 16.0934 N/A
10:55 am 10:55 Sunny 87 30.7 71 21.6 58 58 SW 15 24 29.88 1012 10 16.0934 N/A
11:15 am 11:15 Sunny 87 30.7 71 21.6 58 58 SW 15 24 29.88 1012 10 16.0934 N/A
11:35 am 11:35 Sunny 90 32.1 72 22.3 56 56 SW 15 24 29.88 1012 10 16.0934 N/A
11:55 am 11:55 Sunny N/A N/A N/A undefined N/A N/A 10 16.0934 N/A
12:15 pm 12:15 undefined N/A N/A N/A undefined N/A N/A N/A N/A
12:35 pm 12:35 undefined N/A N/A N/A undefined N/A N/A N/A N/A
12:55 pm 12:55 undefined 90 32.1 69 20.8 51 51 SSW 16 26 29.88 1012 10 16.0934 N/A
1:15 pm 13:15 Partly Cloudy N/A N/A N/A SW 15 24 N/A 10 16.0934 N/A
1:35 pm 13:35 undefined 90 32.1 69 20.4 50 50 SW 17 28 29.85 1011 N/A N/A
1:55 pm 13:55 Mostly Cloudy 90 32.1 70 21.1 52 52 SW 15 24 29.85 1011 10 16.0934 N/A
2:15 pm 14:15 Partly Cloudy 90 32.1 70 21.3 53 53 SW 10 17 29.85 1011 10 16.0934 N/A
2:35 pm 14:35 Mostly Cloudy 90 32.1 70 21.3 53 53 SSW 14 22 29.85 1011 10 16.0934 N/A
2:55 pm 14:55 Partly Cloudy 90 32.1 68 20 49 49 SW 15 24 29.85 1011 10 16.0934 N/A
3:15 pm 15:15 undefined N/A N/A N/A undefined N/A N/A N/A N/A
3:35 pm 15:35 undefined N/A N/A N/A W 47 76 N/A N/A N/A
3:55 pm 15:55 Partly Cloudy with Rain 72 22.3 68 19.8 86 86 SSE 3 6 29.91 1013 7 11.26538 N/A
4:15 pm 16:15 undefined N/A N/A N/A undefined N/A N/A N/A N/A
4:35 pm 16:35 undefined N/A N/A N/A undefined N/A N/A N/A N/A
4:55 pm 16:55 undefined N/A N/A N/A undefined N/A N/A N/A N/A
5:15 pm 17:15 undefined N/A N/A N/A undefined N/A N/A N/A N/A
5:35 pm 17:35 undefined N/A N/A N/A undefined N/A N/A N/A N/A
5:55 pm 17:55 undefined N/A N/A N/A undefined N/A N/A 10 16.0934 N/A
6:15 pm 18:15 Sunny 80 26.5 70 20.9 71 71 N N/A 29.85 1011 10 16.0934 N/A
6:35 pm 18:35 Sunny 80 26.5 71 21.8 75 75 N N/A 29.85 1011 10 16.0934 N/A
6:55 pm 18:55 Sunny 80 26.5 70 21 72 72 N N/A 29.85 1011 10 16.0934 N/A
7:15 pm 19:15 Sunny 80 26.5 71 21.5 74 74 N N/A 29.85 1011 10 16.0934 N/A
7:35 pm 19:35 Sunny 80 26.5 72 22 76 76 N N/A 29.91 1013 10 16.0934 N/A
7:55 pm 19:55 Sunny N/A N/A N/A undefined N/A N/A N/A N/A
8:15 pm 20:15 Partly Cloudy 78 25.3 71 21.9 82 82 N N/A 29.91 1013 10 16.0934 N/A
8:35 pm 20:35 undefined N/A N/A N/A undefined N/A N/A N/A N/A
8:55 pm 20:55 undefined N/A N/A N/A undefined N/A N/A N/A N/A
9:15 pm 21:15 undefined 77 25.1 68 19.8 73 73 NNW 6 9 29.97 1015 10 16.0934 N/A
9:35 pm 21:35 undefined N/A N/A N/A undefined N/A N/A N/A N/A
9:55 pm 21:55 undefined N/A N/A N/A undefined N/A N/A N/A N/A
10:15 pm 22:15 Mostly Clear with Heavy Rain 74 23.6 68 20 80 80 SSW 3 6 30 1016 7 11.26538 N/A
10:35 pm 22:35 Cloudy with Rain 74 23.4 68 20 81 81 S 7 11 29.97 1015 5 8.0467 N/A
10:55 pm 22:55 Mostly Cloudy N/A N/A N/A undefined N/A N/A N/A N/A
11:15 pm 23:15 undefined N/A N/A N/A undefined N/A N/A N/A N/A
11:35 pm 23:35 undefined N/A N/A N/A undefined N/A N/A N/A N/A
11:55 pm 23:55 undefined N/A N/A N/A undefined N/A N/A N/A N/A

Powered by AerisWeather